Zurück zum Katalog

STARLINK-35830

AktivKommunikationVLEO
NORAD 66284·PAYLOAD·🇺🇸 United States

Gestartet Oct 31, 2025 von Vandenberg Space Force Base

Loading…

Nächste Überflüge (nächste 24 Stunden)

TLE

AktuellSource: CelesTrak SupGP

Epoche: Sep 14, 2026, 22:56 UTC

1 66284C 25247V   26257.95604167 -.00002866  00000+0 -84716-4 0  2576
2 66284  53.1590  29.5983 0001086  77.9758 134.5209 15.34380462    16

Verfolge STARLINK-35830 in Echtzeit mit AllMySat

Download on the App Store